User: anonymous   Login
Location: Tierz
(42.1336°N, 0.3549°W)
Time: 03:03:05
(UTC+00:00)
Language:

Cosmos 1709 Rocket - Orbit

View from above orbital plane
View from above orbital plane
View from above satellite
View from above satellite

Ground track
Ground track

The orbit data is extracted from the following two-line orbital elements,

1 16369U 85116B   21018.73173899  .00000054  00000-0  38316-4 0  9999
2 16369  82.9372  92.8316 0037765  88.7430  24.4439 13.76864509762151
Epoch (UTC): 18 January 2021 17:33:42
Eccentricity: 0.0037765
inclination: 82.9372°
perigee height: 947 km
apogee height: 1003 km
right ascension of ascending node: 92.8316°
argument of perigee: 88.7430°
revolutions per day: 13.76864509
mean anomaly at epoch: 24.4439°
orbit number at epoch: 76215

The dashed part of the orbit path shows where the satellite is in the earth's shadow,  

DLR